1529586000.98,58565,22.81,74224.3,20.63,-13.01,-10.49,0,*4E
1529586002.24,58566,22.81,74222.0,20.59,-14.05,-11.41,0,*4E
1529586003.46,58567,22.81,74228.0,20.53,-14.65,-12.07,0,*42
1529586004.73,58568,22.81,74222.3,20.47,-14.83,-12.29,0,*4C
1529586005.95,58569,22.81,74222.0,20.43,-14.89,-12.29,0,*43
1529586007.24,58570,22.81,74222.0,20.35,-13.29,-10.71,0,*48
1529586008.47,58571,22.81,74218.5,20.33,-12.65,-10.09,0,*49
1529586009.73,58572,22.81,74218.0,20.29,-14.05,-11.37,0,*4D
1529586010.95,58573,22.81,74220.5,20.25,-15.07,-12.43,0,*43
1529586012.2,58574,22.81,74226.5,20.17,-15.15,-12.53,0,*47
1529586013.46,58575,22.81,74224.0,20.11,-14.47,-11.77,0,*43
1529586014.67,58576,22.81,74224.0,20.07,-13.65,-11.01,0,*41
1529586015.89,58577,22.81,74220.3,20.03,-14.89,-12.15,0,*47
1529586017.14,58578,22.81,74224.0,19.99,-14.93,-12.11,0,*4E
1529586018.34,58579,22.81,74222.8,19.91,-15.11,-12.47,0,*4F
1529586019.59,58580,22.81,74220.3,19.85,-14.89,-12.15,0,*4B
1529586020.81,58581,22.81,74224.5,19.81,-15.71,-13.07,0,*4A
1529586022.04,58582,22.81,74220.8,19.71,-16.09,-13.43,0,*4A
1529586023.26,58583,22.81,74220.0,19.67,-14.11,-11.41,0,*47
1529586024.5,58584,22.81,74222.3,19.63,-13.87,-11.11,0,*49
1529586025.78,58585,22.81,74222.3,19.59,-14.01,-11.29,0,*43
1529586027.04,58586,22.81,74224.0,19.55,-13.43,-10.63,0,*42
1529586028.26,58587,22.81,74222.5,19.49,-11.37,-8.55,0,*73
1529586029.48,58588,22.81,74224.0,19.49,-13.07,-9.83,0,*77
1529586030.72,58589,22.81,74222.3,19.45,-13.33,-10.35,0,*48
1529586031.94,58590,22.81,74222.8,19.43,-11.19,-8.17,0,*75
1529586033.18,58591,22.81,74226.5,19.43,-9.45,-6.35,0,*4A
1529586034.39,58592,22.81,74224.8,19.41,-8.63,-5.55,0,*4B
1529586035.62,58593,22.81,74224.8,19.43,-6.85,-3.71,0,*4E
1529586036.84,58594,22.81,74224.5,19.47,-6.13,-2.95,0,*49
1529586038.07,58595,22.81,74226.3,19.53,-5.31,-2.31,0,*40
1529586039.25,58596,22.81,74226.5,19.57,-6.39,-3.39,0,*45
1529586040.49,58597,22.81,74220.0,19.57,-4.93,-1.83,0,*45
1529586041.7,58598,22.81,74224.3,19.63,-4.61,-1.67,0,*4A
1529586042.92,58599,22.81,74226.3,19.67,-5.27,-2.31,0,*4C
1529586044.17,58600,22.81,74226.5,19.69,-5.23,-2.27,0,*42
1529586045.39,58601,22.81,74224.8,19.71,-5.93,-2.99,0,*44
1529586046.61,58602,22.81,74222.8,19.75,-5.93,-3.15,0,*46
1529586047.85,58603,22.81,74216.3,19.75,-5.27,-2.47,0,*4E
1529586049.03,58604,22.81,74218.0,19.79,-4.45,-1.51,0,*44
1529586050.25,58605,22.81,74216.0,19.83,-3.83,-0.89,0,*79
1529586051.51,58606,22.81,74218.5,19.85,-2.47,0.51,0,*5D
1529586052.73,58607,22.81,74216.8,19.89,-3.27,-0.49,0,*73
1529586053.94,58608,22.81,74214.8,19.93,-4.49,-1.59,0,*48
1529586055.15,58609,22.81,74216.8,19.93,-4.49,-1.67,0,*44
1529586056.37,58610,22.81,74220.3,19.95,-4.65,-2.07,0,*41
1529586057.59,58611,22.81,74222.0,19.99,-4.85,-2.19,0,*4D
1529586058.8,58612,22.81,74220.5,20.01,-4.17,-1.59,0,*49
1529586060.04,58613,22.81,74222.8,20.01,-5.69,-3.15,0,*4A
1529586061.26,58614,22.81,74224.8,20.01,-6.47,-3.91,0,*4E
1529586062.45,58615,22.81,74222.3,19.99,-6.43,-3.83,0,*43
1529586063.66,58616,22.81,74220.3,19.99,-4.69,-2.19,0,*48
1529586064.88,58617,22.81,74216.8,19.99,-4.49,-1.91,0,*48
1529586066.09,58618,22.81,74222.5,19.99,-4.73,-2.27,0,*40
1529586067.32,58619,22.81,74222.0,19.99,-3.83,-1.39,0,*45
1529586068.53,58620,22.81,74220.0,19.99,-4.45,-1.91,0,*40
1529586069.78,58621,22.81,74226.5,20.01,-3.87,-1.39,0,*41
1529586071.02,58622,22.81,74222.0,20.01,-4.45,-2.03,0,*41
1529586072.28,58623,22.81,74222.3,20.01,-3.47,-1.13,0,*47
1529586073.49,58624,22.81,74218.0,20.01,-3.03,-0.61,0,*74
1529586074.71,58625,22.81,74222.5,20.03,-2.59,-0.15,0,*7A
1529586075.96,58626,22.81,74220.5,20.05,-1.83,0.67,0,*53
1529586077.2,58627,22.81,74222.8,20.09,-0.41,2.17,0,*54
1529586078.45,58628,22.81,74222.8,20.13,0.29,2.81,0,*7C
1529586079.69,58629,22.81,74222.0,20.21,1.29,3.93,0,*4F
1529586080.92,58630,22.81,74222.8,20.25,1.83,4.31,0,*4C
1529586082.16,58631,22.81,74220.8,20.31,1.63,4.07,0,*43
1529586083.37,58632,22.81,74228.5,20.35,2.61,5.07,0,*44
1529586084.59,58633,22.81,74222.3,20.45,3.33,5.77,0,*43
1529586085.81,58634,22.81,74226.5,20.53,3.15,5.59,0,*4B
1529586087.03,58635,22.81,74226.5,20.57,3.37,5.89,0,*43
1529586088.26,58636,22.81,74230.8,20.67,3.41,5.89,0,*42
1529586089.51,58637,22.81,74230.3,20.73,3.41,5.77,0,*47
1529586090.74,58638,22.81,74230.8,20.79,3.49,5.81,0,*43
1529586091.96,58639,22.81,74230.5,20.83,3.49,5.89,0,*4F
1529586093.19,58640,22.81,74230.8,20.89,3.33,5.67,0,*46
1529586094.41,58641,22.81,74230.0,20.97,3.33,5.73,0,*4D
1529586095.65,58642,22.81,74230.5,21.03,3.19,5.55,0,*4E
1529586096.91,58643,22.81,74226.5,21.07,4.05,6.43,0,*45
1529586098.13,58644,22.81,74230.8,21.13,4.01,6.35,0,*42
1529586099.38,58645,22.81,74226.3,21.19,4.75,7.19,0,*45
1529586100.62,58646,22.81,74228.3,21.23,4.79,7.11,0,*4B
1529586101.86,58647,22.81,74226.8,21.31,4.79,7.09,0,*40
1529586103.07,58648,22.81,74228.5,21.37,4.53,6.91,0,*41
1529586104.28,58649,22.81,74226.8,21.41,4.79,7.09,0,*49
1529586105.49,58650,22.81,74230.0,21.47,4.53,6.83,0,*4C
1529586106.72,58651,22.81,74226.3,21.49,3.49,5.81,0,*4E
1529586107.93,58652,22.81,74224.0,21.53,4.45,6.65,0,*44
1529586109.14,58653,22.81,74230.5,21.59,4.37,6.69,0,*46
1529586110.34,58654,22.81,74226.8,21.67,5.67,7.83,0,*4D
1529586111.58,58655,22.81,74226.8,21.71,5.85,8.13,0,*41
1529586112.78,58656,22.81,74224.5,21.75,5.33,7.47,0,*45
1529586114.02,58657,22.81,74226.0,21.81,2.91,4.71,0,*46
1529586115.28,58658,22.81,74224.8,21.81,1.13,2.59,0,*4C
1529586116.48,58659,22.81,74228.0,21.79,0.13,1.79,0,*7A
1529586117.7,58660,22.81,74228.0,21.75,0.33,2.01,0,*72
1529586118.91,58661,22.81,74224.5,21.73,0.63,2.35,0,*77
1529586120.11,58662,22.81,74224.3,21.71,0.43,2.09,0,*7B
1529586121.31,58663,22.81,74226.0,21.71,0.43,2.13,0,*71
1529586122.54,58664,22.81,74226.5,21.69,0.47,2.27,0,*7C
1529586123.77,58665,22.81,74224.0,21.65,0.33,1.97,0,*7A
1529586125.0,58666,22.81,74220.8,21.65,-0.11,1.59,0,*56
1529586126.25,58667,22.81,74226.0,21.61,0.63,2.43,0,*73
1529586127.5,58668,22.81,74224.3,21.61,0.75,2.43,0,*7B
1529586128.74,58669,22.81,74224.8,21.59,0.83,2.51,0,*7B
1529586129.97,58670,22.81,74228.3,21.59,0.83,2.51,0,*73
1529586131.21,58671,22.88,74230.0,21.57,-0.03,1.55,0,*6E
1529586132.47,58672,22.81,74226.5,21.51,-0.23,1.37,0,*5D
1529586133.67,58673,22.81,74224.8,21.49,-0.19,1.43,0,*5F
1529586134.92,58674,22.81,74224.0,21.47,0.37,1.93,0,*7A
1529586136.15,58675,22.81,74226.5,21.45,0.33,1.85,0,*7A
1529586137.38,58676,22.81,74226.8,21.43,0.97,2.69,0,*70
1529586138.65,58677,22.81,74224.3,21.43,1.37,3.15,0,*40
1529586139.89,58678,22.81,74222.3,21.39,0.95,2.65,0,*7D
1529586141.08,58679,22.81,74226.3,21.41,1.01,2.65,0,*4F
1529586142.35,58680,22.81,74228.3,21.39,0.87,2.51,0,*7E
1529586143.57,58681,22.81,74228.5,21.35,0.43,2.13,0,*7D
1529586144.82,58682,22.81,74228.0,21.35,0.33,1.85,0,*75
1529586146.03,58683,22.81,74228.3,21.29,-0.15,1.47,0,*5E
1529586147.23,58684,22.81,74228.0,21.25,0.21,1.75,0,*7E
1529586148.44,58685,22.81,74230.3,21.25,0.55,2.27,0,*78
1529586149.68,58686,22.81,74226.3,21.25,1.21,2.85,0,*41
1529586150.9,58687,22.81,74228.0,21.21,1.67,3.23,0,*4B
1529586152.13,58688,22.81,74230.5,21.21,1.33,2.89,0,*44
1529586153.37,58689,22.81,74230.5,21.19,1.37,2.99,0,*4B
1529586154.59,58690,22.81,74230.0,21.17,1.89,3.37,0,*4D
1529586155.81,58691,22.81,74230.3,21.19,2.05,3.63,0,*44
1529586157.04,58692,22.81,74230.5,21.17,2.17,3.79,0,*41
1529586158.23,58693,22.81,74232.0,21.17,1.51,2.99,0,*4E
1529586159.49,58694,22.81,74230.5,21.15,1.13,2.69,0,*42
1529586160.7,58695,22.81,74228.0,21.13,1.37,2.91,0,*44
1529586161.89,58696,22.81,74228.3,21.13,1.71,3.25,0,*4B
1529586163.16,58697,22.81,74228.5,21.11,2.17,3.71,0,*4A
1529586164.37,58698,22.81,74228.3,21.07,1.89,3.55,0,*40
1529586165.56,58699,22.81,74226.5,21.05,2.09,3.55,0,*48
1529586166.78,58700,22.81,74226.8,21.05,1.47,3.07,0,*47
1529586168.02,58701,22.81,74226.8,21.03,0.67,2.25,0,*72
1529586169.27,58702,22.81,74228.8,21.03,1.25,2.85,0,*4C
1529586170.52,58703,22.81,74226.0,20.99,1.55,3.11,0,*44
1529586171.77,58704,22.81,74230.8,20.99,1.89,3.37,0,*46
1529586172.99,58705,22.88,74228.8,20.97,1.67,3.11,0,*4D
1529586174.25,58706,22.81,74224.8,20.95,0.91,2.39,0,*7F
1529586175.49,58707,22.81,74226.5,20.93,1.33,2.89,0,*4A
1529586176.72,58708,22.88,74228.3,20.93,2.17,3.71,0,*46
1529586177.95,58709,22.81,74228.0,20.91,1.89,3.33,0,*47
1529586179.15,58710,22.81,74228.0,20.91,2.27,3.75,0,*4A
1529586180.37,58711,22.81,74230.0,20.89,2.27,3.71,0,*46
1529586181.6,58712,22.88,74228.3,20.85,2.13,3.55,0,*48
1529586182.83,58713,22.81,74222.5,20.85,1.55,2.99,0,*49
1529586184.05,58714,22.81,74226.3,20.81,1.59,2.91,0,*4E
1529586185.28,58715,22.81,74224.3,20.81,1.75,3.15,0,*4C
1529586186.48,58716,22.81,74230.8,20.79,1.59,2.99,0,*43
1529586187.69,58717,22.81,74226.3,20.79,1.79,3.03,0,*42
1529586188.95,58718,22.81,74226.8,20.77,1.63,2.89,0,*4B
1529586190.18,58719,22.81,74224.8,20.75,2.09,3.37,0,*43
1529586191.4,58720,22.81,74222.8,20.73,2.77,4.19,0,*4D
1529586192.62,58721,22.81,74224.0,20.73,2.81,4.11,0,*4D
1529586193.85,58722,22.81,74222.3,20.73,2.65,4.01,0,*45
1529586195.06,58723,22.81,74224.8,20.71,3.11,4.45,0,*44
1529586196.27,58724,22.81,74224.3,20.71,3.37,4.53,0,*40
1529586197.47,58725,22.81,74224.5,20.71,2.55,3.81,0,*4C
1529586198.71,58726,22.81,74224.8,20.69,3.07,4.27,0,*4B
1529586199.96,58727,22.81,74224.0,20.69,2.89,4.05,0,*4D
1529586201.2,58728,22.88,74228.0,20.69,2.77,3.89,0,*40
1529586202.43,58729,22.81,74224.3,20.69,2.77,3.93,0,*4A
1529586203.67,58730,22.88,74228.0,20.67,3.67,4.71,0,*47
1529586204.89,58731,22.88,74228.8,20.67,3.89,5.01,0,*40
1529586206.1,58732,22.81,74224.8,20.67,3.89,4.97,0,*4D
1529586207.33,58733,22.88,74228.5,20.63,2.85,3.75,0,*4E
1529586208.56,58734,22.81,74230.3,20.61,0.95,1.83,0,*73
1529586209.79,58735,22.81,74228.3,20.59,0.63,1.59,0,*77
1529586211.05,58736,22.81,74228.8,20.55,1.51,2.43,0,*40
1529586212.27,58737,22.88,74228.5,20.55,-0.07,0.63,0,*5E
1529586213.49,58738,22.81,74230.8,20.49,0.59,1.33,0,*7E
1529586214.69,58739,22.81,74230.3,20.45,1.79,2.59,0,*4F
1529586215.89,58740,22.88,74234.3,20.43,2.99,3.59,0,*4B
1529586217.13,58741,22.81,74228.5,20.43,3.41,4.07,0,*42
1529586218.35,58742,22.81,74230.3,20.43,3.37,4.11,0,*47
1529586219.59,58743,22.81,74230.8,20.43,3.25,3.75,0,*40
1529586220.83,58744,22.81,74232.5,20.39,2.17,2.61,0,*4E
1529586222.06,58745,22.81,74230.0,20.43,3.37,3.93,0,*4D
1529586223.29,58746,22.81,74228.3,20.37,3.49,4.05,0,*4C
1529586224.5,58747,22.81,74228.8,20.37,3.25,3.71,0,*43
1529586225.73,58748,22.88,74232.5,20.35,3.11,3.63,0,*4A
1529586226.96,58749,22.81,74230.3,20.35,3.53,3.93,0,*42
1529586228.17,58750,22.88,74234.3,20.33,3.37,3.81,0,*4D
1529586229.38,58751,22.81,74230.8,20.33,3.41,3.85,0,*49
1529586230.57,58752,22.81,74232.5,20.33,3.63,4.07,0,*47
1529586231.81,58753,22.88,74234.0,20.33,3.07,3.41,0,*41
1529586233.0,58754,22.81,74228.3,20.33,4.11,4.57,0,*46
1529586234.21,58755,22.88,74238.8,20.33,3.49,3.89,0,*49
1529586235.49,58756,22.81,74230.5,20.31,3.07,3.41,0,*46
1529586236.7,58757,22.88,74234.3,20.29,2.99,3.33,0,*4D
1529586237.87,58758,22.88,74238.0,20.29,3.81,4.19,0,*45
1529586239.08,58759,22.81,74234.0,20.29,3.59,4.05,0,*4C
1529586240.32,58760,22.88,74234.5,20.29,3.67,4.05,0,*4B
1529586241.5,58761,22.81,74230.8,20.27,3.63,3.89,0,*43
1529586242.7,58762,22.81,74228.5,20.27,3.23,3.55,0,*45
1529586243.9,58763,22.88,74234.0,20.25,3.63,4.07,0,*42
1529586245.12,58764,22.81,74228.3,20.27,4.33,4.71,0,*44
1529586246.35,58765,22.81,74230.0,20.25,3.79,4.23,0,*49
1529586247.53,58766,22.88,74232.0,20.27,3.89,4.23,0,*47
1529586248.71,58767,22.88,74234.0,20.27,4.11,4.49,0,*4C
1529586249.88,58768,22.81,74230.3,20.27,3.81,4.15,0,*44
1529586251.09,58769,22.88,74232.0,20.25,4.07,4.45,0,*4B
1529586252.3,58770,22.81,74230.5,20.27,4.33,4.71,0,*41
1529586253.51,58771,22.81,74228.3,20.27,4.45,4.75,0,*45
1529586254.72,58772,22.81,74228.5,20.27,4.33,4.59,0,*49
1529586255.9,58773,22.81,74230.3,20.27,4.11,4.45,0,*45
1529586257.15,58774,22.81,74230.5,20.25,2.81,3.19,0,*41
1529586258.37,58775,22.81,74228.5,20.25,3.79,4.19,0,*41
1529586259.58,58776,22.81,74230.3,20.27,3.41,3.81,0,*4D
1529586260.79,58777,22.81,74230.5,20.25,2.95,3.29,0,*44
1529586262.02,58778,22.88,74230.8,20.25,2.65,3.03,0,*4C
1529586263.27,58779,22.81,74226.3,20.25,2.89,3.15,0,*48
1529586264.5,58780,22.88,74230.8,20.23,3.37,3.79,0,*46
1529586265.74,58781,22.88,74230.3,20.23,3.03,3.49,0,*43
1529586266.94,58782,22.88,74230.0,20.23,3.59,3.97,0,*4C
1529586268.16,58783,22.88,74228.3,20.21,3.59,3.97,0,*4F
1529586269.37,58784,22.88,74228.5,20.23,4.01,4.41,0,*4C
1529586270.58,58785,22.88,74230.8,20.21,4.27,4.57,0,*4C
1529586271.76,58786,22.81,74224.8,20.23,4.23,4.57,0,*49
1529586272.97,58787,22.88,74226.3,20.23,4.33,4.67,0,*4A
1529586274.18,58788,22.88,74226.5,20.25,3.89,4.33,0,*44
1529586275.4,58789,22.88,74226.3,20.25,3.49,3.85,0,*43
1529586276.63,58790,22.88,74228.8,20.25,3.71,4.11,0,*4A
1529586277.85,58791,22.88,74228.3,20.25,3.79,4.23,0,*42
1529586279.06,58792,22.88,74228.3,20.25,4.11,4.57,0,*4B
1529586280.24,58793,22.88,74228.0,20.29,4.53,4.89,0,*43
1529586281.44,58794,22.88,74230.5,20.25,4.49,4.89,0,*43
1529586282.62,58795,22.88,74228.3,20.27,4.15,4.53,0,*4E
1529586283.85,58796,22.81,74228.3,20.25,3.97,4.33,0,*44
1529586285.04,58797,22.88,74228.8,20.27,3.89,4.33,0,*48
1529586286.23,58798,22.88,74230.8,20.27,3.93,4.37,0,*48
1529586287.44,58799,22.81,74226.8,20.27,4.15,4.63,0,*41
1529586288.61,58800,22.88,74230.5,20.27,3.55,3.93,0,*45
1529586289.82,58801,22.81,74226.5,20.25,2.91,3.25,0,*42
1529586291.05,58802,22.88,74228.3,20.25,3.25,3.75,0,*4A
1529586292.28,58803,22.88,74226.5,20.25,1.97,2.35,0,*45
1529586293.53,58804,22.81,74224.8,20.25,2.59,3.15,0,*40
1529586294.76,58805,22.81,74224.0,20.23,2.77,3.15,0,*4B
1529586296.0,58806,22.81,74224.3,20.23,2.77,3.15,0,*48
1529586297.24,58807,22.88,74226.8,20.21,2.77,3.23,0,*4E
1529586298.49,58808,22.88,74230.5,20.21,2.39,2.85,0,*46
1529586299.73,58809,22.88,74228.5,20.21,2.27,2.73,0,*41
1529586300.95,58810,22.81,74224.8,20.21,2.43,2.91,0,*47
1529586302.18,58811,22.88,74228.5,20.21,2.65,3.23,0,*4A
1529586303.44,58812,22.88,74230.0,20.17,2.59,3.07,0,*45
1529586304.67,58813,22.88,74226.5,20.17,2.59,2.95,0,*4E
1529586305.9,58814,22.88,74230.8,20.17,2.95,3.67,0,*45
1529586307.08,58815,22.88,74230.3,20.15,2.95,3.63,0,*42
1529586308.29,58816,22.88,74226.3,20.15,2.99,3.71,0,*4E
1529586309.55,58817,22.88,74228.0,20.17,2.85,3.45,0,*47
1529586310.79,58818,22.88,74226.5,20.15,2.81,3.33,0,*4F
1529586312.02,58819,22.88,74230.5,20.17,2.47,2.99,0,*47
1529586313.25,58820,22.88,74228.0,20.17,2.69,3.29,0,*4B
1529586314.46,58821,22.88,74230.5,20.15,3.19,3.89,0,*44
1529586315.72,58822,22.88,74228.5,20.17,2.81,3.45,0,*45
1529586316.93,58823,22.88,74224.3,20.17,2.61,3.29,0,*40
1529586318.17,58824,22.88,74226.0,20.15,2.81,3.45,0,*41
1529586319.42,58825,22.88,74228.0,20.17,2.73,3.45,0,*4F
1529586320.65,58826,22.88,74226.8,20.17,2.61,3.33,0,*4E
1529586321.89,58827,22.88,74228.3,20.17,2.59,3.29,0,*4F
1529586323.12,58828,22.88,74228.5,20.17,2.13,2.95,0,*48
1529586324.37,58829,22.88,74224.8,20.17,2.51,3.23,0,*43
1529586325.63,58830,22.88,74230.8,20.17,2.09,2.89,0,*47
1529586326.86,58831,22.88,74232.0,20.17,2.25,2.99,0,*49
1529586328.09,58832,22.88,74224.5,20.17,2.13,2.95,0,*43
1529586329.36,58833,22.88,74226.8,20.17,1.33,2.17,0,*49
1529586330.58,58834,22.88,74226.0,20.15,0.55,1.43,0,*7F
1529586331.79,58835,22.88,74228.0,20.15,0.83,1.75,0,*70
1529586333.05,58836,22.88,74226.0,20.13,1.25,2.21,0,*4A
1529586334.28,58837,22.81,74224.8,20.13,0.91,1.79,0,*7B
1529586335.53,58838,22.88,74226.0,20.13,0.79,1.71,0,*7A
1529586336.79,58839,22.88,74226.8,20.09,1.09,2.05,0,*46
1529586338.04,58840,22.88,74220.8,20.09,1.09,2.09,0,*44
1529586339.3,58841,22.88,74226.3,20.09,1.17,2.09,0,*4A
1529586340.53,58842,22.88,74222.8,20.09,1.05,2.09,0,*4A
1529586341.77,58843,22.88,74222.8,20.09,0.21,1.25,0,*71
1529586343.02,58844,22.88,74224.0,20.07,1.21,2.25,0,*4A
1529586344.26,58845,22.88,74224.0,20.07,1.29,2.39,0,*4E
1529586345.48,58846,22.88,74226.3,20.07,0.33,1.21,0,*7D
1529586346.7,58847,22.88,74222.5,20.07,0.29,1.43,0,*73
1529586347.92,58848,22.88,74224.0,20.03,0.51,1.47,0,*73
1529586349.13,58849,22.88,74220.8,20.03,0.63,1.71,0,*76
1529586350.35,58850,22.88,74226.0,20.03,0.17,1.37,0,*7F
1529586351.56,58851,22.88,74220.5,20.03,-0.11,1.13,0,*53
1529586352.81,58852,22.88,74220.3,20.01,0.83,2.09,0,*7C
1529586354.05,58853,22.88,74220.8,20.01,0.51,1.55,0,*78
1529586355.26,58854,22.88,74224.0,19.99,-0.37,0.91,0,*60
1529586356.49,58855,22.88,74220.5,19.99,-1.99,-0.77,0,*71
1529586357.72,58856,22.88,74218.8,19.93,-1.83,-0.61,0,*74
1529586358.94,58857,22.88,74220.5,19.89,-2.43,-1.17,0,*41
1529586360.15,58858,22.88,74224.0,19.89,-2.43,-1.25,0,*4F
1529586361.38,58859,22.88,74222.5,19.83,-2.11,-0.89,0,*74
1529586362.61,58860,22.88,74220.5,19.83,-1.09,0.37,0,*5C
1529586363.81,58861,22.88,74222.0,19.79,-1.25,0.13,0,*50
1529586365.04,58862,22.81,74214.0,19.79,-1.13,0.25,0,*53
1529586366.26,58863,22.88,74220.5,19.79,-0.89,0.47,0,*64
1529586367.5,58864,22.88,74222.5,19.77,-2.07,-0.45,0,*76
1529586368.66,58865,22.88,74224.0,19.75,0.01,1.41,0,*44
1529586369.9,58866,22.88,74226.8,19.75,1.29,3.03,0,*48
1529586371.16,58867,22.88,74224.0,19.77,1.63,3.41,0,*43
1529586372.37,58868,22.88,74220.8,19.79,0.47,2.05,0,*74
1529586373.57,58869,22.88,74222.8,19.83,0.47,2.31,0,*77
1529586374.77,58870,22.88,74220.8,19.83,2.55,4.53,0,*4C
1529586376.0,58871,22.81,74214.8,19.85,3.45,5.29,0,*47
1529586377.2,58872,22.88,74220.5,19.91,3.85,5.73,0,*42
1529586378.38,58873,22.88,74222.8,19.95,4.15,6.07,0,*49
1529586379.59,58874,22.88,74222.3,20.03,3.33,5.23,0,*4D
1529586380.8,58875,22.88,74218.8,20.05,3.85,5.95,0,*4A
1529586382.01,58876,22.88,74216.5,20.11,3.71,5.71,0,*4D
1529586383.26,58877,22.88,74218.3,20.13,2.55,4.59,0,*42
1529586384.49,58878,22.88,74218.5,20.17,2.81,4.81,0,*45
1529586385.69,58879,22.88,74214.3,20.23,4.01,6.07,0,*41
1529586386.89,58880,22.88,74212.3,20.27,5.07,7.23,0,*43
1529586388.09,58881,22.88,74214.8,20.35,4.85,7.01,0,*4A
1529586389.32,58882,22.88,74214.3,20.39,4.27,6.35,0,*4B
1529586390.55,58883,22.88,74214.0,20.47,3.97,6.11,0,*49
1529586391.74,58884,22.88,74214.8,20.49,2.99,5.11,0,*4C
1529586392.99,58885,22.88,74216.3,20.51,2.51,4.67,0,*40
1529586394.2,58886,22.88,74216.0,20.55,3.25,5.41,0,*40
1529586395.41,58887,22.88,74216.5,20.57,3.37,5.59,0,*49
1529586396.64,58888,22.88,74218.5,20.61,4.05,6.25,0,*4D
1529586397.84,58889,22.88,74222.0,20.67,3.81,5.89,0,*44
1529586399.04,58890,22.88,74216.0,20.71,4.63,6.83,0,*49
1529586400.25,58891,22.88,74216.3,20.75,2.25,4.57,0,*43
1529586401.45,58892,22.88,74216.8,20.75,2.25,4.49,0,*4F
1529586402.66,58893,22.88,74216.3,20.77,2.61,4.81,0,*48
1529586403.91,58894,22.88,74218.0,20.81,2.69,4.93,0,*4D
1529586405.12,58895,22.88,74216.3,20.83,2.89,5.11,0,*4B
1529586406.37,58896,22.88,74218.0,20.89,2.55,4.75,0,*40
1529586407.6,58897,22.88,74214.8,20.89,3.03,5.33,0,*40
1529586408.8,58898,22.88,74216.5,20.93,4.79,6.97,0,*43
1529586410.03,58899,22.88,74214.5,20.99,5.33,7.61,0,*4F
1529586411.2,58900,22.88,74214.0,21.05,5.15,7.37,0,*4D
1529586412.42,58901,22.88,74214.0,21.11,5.73,7.97,0,*43
1529586413.61,58902,22.81,74214.3,21.17,6.25,8.45,0,*46
1529586414.81,58903,22.88,74212.8,21.23,5.95,8.05,0,*4C
1529586416.07,58904,22.88,74216.0,21.27,4.01,5.81,0,*42
1529586417.3,58905,22.88,74212.8,21.27,0.21,1.79,0,*76
1529586418.5,58906,22.88,74212.3,21.25,0.43,2.17,0,*78
1529586419.69,58907,22.88,74218.0,21.25,1.01,2.65,0,*4B
1529586420.94,58908,22.88,74216.0,21.23,0.75,2.43,0,*74
1529586422.16,58909,22.88,74216.5,21.21,0.87,2.51,0,*79
1529586423.34,58910,22.88,74218.0,21.21,0.09,1.59,0,*4C
1529586424.57,58911,22.88,74216.3,21.19,-1.39,0.09,0,*6D
1529586425.77,58912,22.88,74216.8,21.17,-0.19,1.29,0,*50
1529586427.0,58913,22.88,74218.5,21.17,-0.27,1.09,0,*5E
1529586428.18,58914,22.88,74218.8,21.13,0.13,1.41,0,*7B
1529586429.39,58915,22.88,74216.3,21.11,0.25,1.75,0,*7A
1529586430.6,58916,22.88,74216.3,21.13,0.21,1.59,0,*71
1529586431.8,58917,22.88,74216.0,21.13,-0.23,1.05,0,*56
1529586433.02,58918,22.88,74216.8,21.07,-1.13,0.09,0,*63
1529586434.25,58919,22.88,74218.8,21.07,0.13,1.71,0,*70
1529586435.43,58920,22.88,74220.0,21.05,0.17,1.41,0,*7F
1529586436.59,58921,22.88,74220.3,21.05,-0.07,1.05,0,*62
1529586437.81,58922,22.88,74220.0,21.03,-0.11,1.13,0,*57
1529586439.05,58923,22.88,74222.8,21.03,0.17,1.37,0,*7B
1529586440.27,58924,22.88,74220.8,21.03,0.09,1.29,0,*4C
1529586441.49,58925,22.88,74220.3,21.03,-0.57,0.63,0,*64
1529586442.69,58926,22.88,74222.8,21.03,-1.29,-0.07,0,*40
1529586443.91,58927,22.88,74220.3,20.99,-0.61,0.67,0,*65
1529586445.12,58928,22.88,74222.5,21.01,0.75,2.05,0,*74
1529586446.34,58929,22.88,74218.3,21.01,1.43,2.59,0,*48
1529586447.55,58930,22.88,74220.0,21.03,1.41,2.61,0,*4B
1529586448.81,58931,22.88,74218.8,21.03,1.13,2.25,0,*4D
1529586450.02,58932,22.88,74220.8,21.05,2.25,3.53,0,*4E
1529586451.23,58933,22.88,74224.3,21.07,3.81,5.07,0,*45
1529586452.45,58934,22.88,74220.5,21.15,3.97,5.15,0,*45
1529586453.68,58935,22.88,74222.5,21.19,4.41,5.55,0,*40
1529586454.87,58936,22.88,74224.0,21.25,4.85,6.03,0,*44
1529586456.07,58937,22.88,74226.0,21.29,5.37,6.53,0,*44
1529586457.28,58938,22.88,74222.3,21.37,4.93,6.03,0,*4E
1529586458.5,58939,22.88,74226.5,21.43,4.89,5.95,0,*4B
1529586459.74,58940,22.88,74226.5,21.47,5.19,6.13,0,*44
1529586460.98,58941,22.88,74226.0,21.51,4.07,5.05,0,*48
1529586462.19,58942,22.88,74224.8,21.59,4.63,5.59,0,*48
1529586463.41,58943,22.88,74226.8,21.63,4.71,5.63,0,*4A
1529586464.63,58944,22.88,74224.3,21.67,4.59,5.49,0,*4B
1529586465.82,58945,22.88,74226.3,21.73,5.07,6.07,0,*4C
1529586467.02,58946,22.88,74224.3,21.75,5.29,6.13,0,*40
1529586468.22,58947,22.88,74224.3,21.83,5.49,6.35,0,*4A
1529586469.45,58948,22.88,74226.0,21.89,5.55,6.43,0,*43
1529586470.65,58949,22.88,74226.3,21.93,5.51,6.25,0,*4D
1529586471.88,58950,22.88,74226.0,21.99,4.93,5.71,0,*42
1529586473.1,58951,22.88,74226.3,22.05,4.37,5.05,0,*48
1529586474.31,58952,22.88,74224.3,22.09,4.41,5.01,0,*42
1529586475.49,58953,22.88,74224.8,22.13,4.23,4.85,0,*41
1529586476.72,58954,22.88,74224.3,22.15,4.97,5.67,0,*42
1529586477.92,58955,22.88,74222.3,22.19,4.81,5.37,0,*4D
1529586479.11,58956,22.88,74220.5,22.27,4.41,4.85,0,*47
1529586480.32,58957,22.88,74220.5,22.31,4.23,4.75,0,*4A
1529586481.55,58958,22.88,74220.8,22.33,4.57,5.05,0,*42
1529586482.79,58959,22.88,74220.5,22.37,4.23,4.75,0,*42
1529586483.99,58960,22.88,74220.8,22.43,4.19,4.59,0,*4C
1529586485.17,58961,22.88,74218.0,22.47,2.99,3.25,0,*4B
1529586486.38,58962,22.88,74220.5,22.49,3.25,3.63,0,*42
1529586487.61,58963,22.88,74220.3,22.51,2.55,2.69,0,*47
1529586488.81,58964,22.88,74222.3,22.55,2.17,2.31,0,*4F
1529586490.04,58965,22.88,74222.0,22.55,1.33,1.43,0,*4D
1529586491.27,58966,22.88,74220.8,22.53,0.91,1.01,0,*77
1529586492.48,58967,22.88,74222.0,22.55,0.97,1.09,0,*7E
1529586493.69,58968,22.88,74222.3,22.55,2.27,2.43,0,*45
1529586494.89,58969,22.88,74220.0,22.55,2.99,3.03,0,*44
1529586496.09,58970,22.88,74220.0,22.59,4.01,4.19,0,*4B
1529586497.27,58971,22.88,74222.0,22.63,4.07,4.19,0,*45
1529586498.48,58972,22.88,74214.8,22.67,2.69,2.65,0,*41
1529586499.66,58973,22.88,74218.0,22.71,-0.33,-0.57,0,*49
1529586500.84,58974,22.88,74220.0,22.67,-0.57,-0.81,0,*40
1529586502.03,58975,22.88,74222.3,22.67,-0.19,-0.37,0,*46
1529586503.29,58976,22.88,74222.0,22.65,1.09,0.95,0,*7F
1529586504.52,58977,22.88,74220.0,22.67,2.09,1.85,0,*4F
1529586505.76,58978,22.88,74222.0,22.73,2.27,2.09,0,*4E
1529586507.02,58979,22.88,74222.8,22.73,2.39,2.25,0,*4E
1529586508.25,58980,22.88,74216.8,22.77,1.97,1.75,0,*4D
1529586509.49,58981,22.88,74220.0,22.77,0.67,0.47,0,*42
1529586510.73,58982,22.88,74218.3,22.77,-0.69,-1.01,0,*7C
1529586511.95,58983,22.88,74218.8,22.75,-2.39,-2.75,0,*48
1529586513.2,58984,22.88,74218.8,22.75,-2.03,-2.47,0,*47
1529586514.41,58985,22.88,74220.0,22.71,-2.55,-3.07,0,*44
1529586515.63,58986,22.88,74220.3,22.71,-2.51,-2.95,0,*49
1529586516.85,58987,22.88,74224.0,22.67,-0.93,-1.21,0,*7F
1529586518.05,58988,22.88,74224.8,22.67,0.25,-0.37,0,*66
1529586519.25,58989,22.88,74226.3,22.67,0.13,-0.33,0,*66